SCP
0 0 0 0 0 0 0 0 0 0 0 0 0 0 0 0 0 0 0 0 0 0 0 0 0 0 0 0 0 0 0 0 0 0 0 0 0 0 0 0 0 0 0
0 0 0 0 0 0 0 0 0 0 0 0 0 0 0 0 0 0 0 0 0 0 0 0 0 0 0 0 0 0 0 0 0 0 0 0 0 0 0 0 0 0 0
0 0 0 0 0 0 0 0 0 0 0 0 0 0 0 0 0 0 0 0 0 0 0 0 0 0 0 0 0 0 0 0 0 0 0 0 0 0 0 0 0 0 0
0 0 0 0 0 0 0 0 0 0 0 0 0 0 0 0 0 0 0 0 0 0 0 0 0 0 0 0 0 0 0 0 0 0 0 0 0 0 0 0 0 0 0
0 0 0 0 0 0 0 0 0 0 0 0 0 0 0 0 0 0 0 0 0 0 0 0 0 0 0 0 0 0 0 0 0 0 0 0 0 0 0 0 0 0 0
0 0 0 0 0 0 0 0 0 0 0 0 0 0 0 0 0 0 0 0 0 0 0 0 0 0 0 0 0 0 0 0 0 0 0 0 0 0 0 0 0 0 0
0 0 0 0 0 0 0 0 0 0 0 0 0 0 0 0 0 0 0 0 0 0 0 0 0 0 0 0 0 0 0 0 0 0 0 0 0 0 0 0 0 0 0
0 0 0 0 0 0 0 0 0 0 0 0 0 0 0 0 0 0 0 0 0 0 0 0 0 0 0 0 0 0 0 0 0 0 0 0 0 0 0 0 0 0 0
0 0 0 0 0 0 0 0 0 0 0 0 0 0 0 0 0 0 0 0 0 0 0 0 0 0 0 0 0 0 0 0 0 0 0 0 0 0 0 0 0 0 0
0 0 0 0 0 0 0 0 0 0 0 0 0 0 0 0 0 0 0 0 0 0 0 0 0 0 0 0 0 0 0 0 0 0 0 0 0 0 0 0 0 0 0
0 0 0 0 0 0 0 0 0 0 0 0 0 0 0 0 0 0 0 0 0 0 0 0 0 0 0 0 0 0 0 0 0 0 0 0 0 0 0 0 0 0 0
0 0 0 0 0 0 0 0 0 0 0 0 0 0 0 0 0 0 0 0 0 0 0 0 0 0 0 0 0 0 0 0 0 0 0 0 0 0 0 0 0 0 0
0 0 0 0 0 0 0 0 0 0 0 0 0 0 0 0 0 0 0 0 0 0 0 0 0 0 0 0 0 0 0 0 0 0 0 0 0 0 0 0 0 0 0
0 0 0 0 0 0 0 0 0 0 0 0 0 0 0 0 0 0 0 0 0 0 0 0 0 0 0 0 0 0 0 0 0 0 0 0 0 0 0 0 0 0 0
0 0 0 0 0 0 0 0 0 0 0 0 0 0 0 0 0 0 0 0 0 0 0 0 0 0 0 0 0 0 0 0 0 0 0 0 0 0 0 0 0 0 0
0 0 0 0 0 0 0 0 0 0 0 0 0 0 0 0 0 0 0 0 0 0 0 0 0 0 0 0 0 0 0 0 0 0 0 0 0 0 0 0 0 0 0
0 0 0 0 0 0 0 0 0 0 0 0 0 0 0 0 0 0 0 0 0 0 0 0 0 0 0 0 0 0 0 0 0 0 0 0 0 0 0 0 0 0 0
0 0 0 0 0 0 0 0 0 0 0 0 0 0 0 0 0 0 0 0 0 0 0 0 0 0 0 0 0 0 0 0 0 0 0 0 0 0 0 0 0 0 0
0 0 0 0 0 0 0 0 0 0 0 0 0 0 0 0 0 0 0 0 0 0 0 0 0 0 0 0 0 0 0 0 0 0 0 0 0 0 0 0 0 0 0
0 0 0 0 0 0 0 0 0 0 0 0 0 0 0 0 0 0 0 0 0 0 0 0 0 0 0 0 0 0 0 0 0 0 0 0 0 0 0 0 0 0 0
0 0 0 0 0 0 0 0 0 0 0 0 0 0 0 0 0 0 0 0 0 0 0 0 0 0 0 0 0 0 0 0 0 0 0 0 0 0 0 0 0 0 0
0 0 0 0 0 0 0 0 0 0 0 0 0 0 0 0 0 0 0 0 0 0 0 0 0 0 0 0 0 0 0 0 0 0 0 0 0 0 0 0 0 0 0
0 0 0 0 0 0 0 0 0 0 0 0 0 0 0 0 0 0 0 0 0 0 0 0 0 0 0 0 0 0 0 0 0 0 0 0 0 0 0 0 0 0 0
0 0 0 0 0 0 0 0 0 0 0 0 0 0 0 0 0 0 0 0 0 0 0 0 0 0 0 0 0 0 0 0 0 0 0 0 0 0 0 0 0 0 0
0 0 0 0 0 0 0 0 0 0 0 0 0 0 0 0 0 0 0 0 0 0 0 0 0 0 0 0 0 0 0 0 0 0 0 0 0 0 0 0 0 0 0
0 0 0 0 0 0 0 0 0 0 0 0 0 0 0 0 0 0 0 0 0 0 0 0 0 0 0 0 0 0 0 0 0 0 0 0 0 0 0 0 0 0 0
Wind_Speed
5 4 4 5 5 5 7 8 11 10 11 9 8 7 6 6 7 7 8 9 8 8 7 5 5 5 5 5 5 3 4 3 4 4 5 6 4 3 3 5 5 6 8
6 6 4 4 5 6 8 9 10 9 8 7 7 6 6 6 6 5 8 8 8 7 7 6 5 5 4 5 6 5 3 3 3 2 3 5 6 5 7 5 3 6 7
14 9 7 6 7 8 9 9 9 10 11 11 11 10 7 5 4 5 5 6 7 7 7 6 5 5 4 4 4 4 3 3 3 2 2 3 4 5 4 3 3 5 6
12 10 9 8 8 7 8 10 11 11 11 11 12 12 8 6 4 4 4 5 7 7 6 6 5 4 4 4 3 3 2 2 2 3 1 1 3 4 6 5 4 6 6
16 14 12 10 8 9 9 9 11 10 9 9 10 11 9 7 5 5 6 6 5 6 6 5 5 4 3 3 4 3 3 2 2 2 2 2 3 4 5 8 6 6 5
14 12 8 10 9 8 9 9 11 9 9 10 9 11 12 10 9 7 5 4 3 4 5 4 4 3 3 3 3 3 4 3 3 3 3 2 3 4 5 9 11 9 6
18 16 14 13 12 11 10 10 12 10 9 11 9 9 10 10 9 7 6 4 2 2 2 3 3 3 3 3 3 3 4 3 4 4 3 3 3 4 5 10 13 14 8
17 17 16 14 13 13 11 12 13 11 10 11 10 8 8 7 6 6 5 4 2 1 1 2 3 3 4 4 4 3 3 3 4 6 4 3 4 4 5 7 12 16 9
17 16 14 12 13 12 11 12 14 12 10 10 10 8 8 8 7 6 5 3 2 1 2 2 3 4 4 4 4 3 5 4 4 4 4 3 4 5 5 6 7 10 17
15 15 13 12 10 10 10 10 11 12 10 9 8 8 7 7 7 6 5 4 2 2 2 3 3 4 4 4 4 5 5 5 5 3 4 5 5 5 5 6 6 7 12
18 16 13 11 11 10 10 10 10 11 9 8 8 8 7 6 6 5 4 3 2 2 3 3 4 5 5 5 5 6 6 6 6 5 6 6 7 6 6 7 7 8 9
15 14 14 12 12 12 11 10 9 9 9 8 8 7 7 6 6 5 3 3 2 2 3 4 4 5 6 6 6 7 7 7 7 7 6 7 8 8 8 7 8 9 10
14 12 13 13 12 12 11 10 9 9 8 8 8 7 6 6 5 4 3 2 2 3 4 4 5 6 6 7 7 7 7 7 7 7 7 8 8 10 9 10 11 10 11
16 14 13 11 11 11 11 10 9 9 9 8 8 7 6 5 4 3 2 2 3 3 4 5 5 6 7 7 7 7 7 7 7 7 7 8 9 11 11 11 10 11 12
16 16 15 12 12 11 10 10 9 9 9 9 7 6 5 4 4 3 2 2 3 4 4 5 6 6 6 7 10 8 7 7 7 7 7 9 15 20 17 15 13 14 13
17 16 15 14 14 13 12 11 10 9 9 8 7 6 5 4 3 2 2 3 4 4 5 5 6 7 8 17 20 16 8 7 7 8 8 10 13 18 24 27 27 25 19
16 17 16 15 14 13 13 12 10 9 9 8 6 5 5 4 2 2 3 3 4 4 5 6 6 7 10 19 21 21 12 7 7 8 9 11 13 19 12 20 25 22 26
14 13 12 11 11 11 12 11 10 9 9 7 6 5 4 3 2 2 3 3 3 4 4 6 7 7 10 19 20 22 10 8 8 9 10 11 11 14 20 17 16 14 13
10 10 11 12 13 13 14 13 10 9 8 7 6 4 4 2 1 2 3 3 3 4 5 6 7 7 9 17 20 21 8 8 9 9 9 12 12 23 29 20 17 14 12
11 12 13 14 13 12 13 13 10 8 7 6 5 4 3 2 1 2 3 3 3 5 6 6 6 7 8 15 20 21 7 8 9 8 8 16 21 27 28 17 12 14 16
14 14 14 13 12 12 13 12 9 7 6 6 5 4 2 1 1 2 2 4 4 5 5 6 6 7 9 14 19 21 10 9 11 10 9 10 25 27 27 23 12 19 20
13 14 14 12 9 10 12 11 8 6 6 6 5 3 2 2 2 3 4 4 4 5 6 6 7 5 7 11 16 21 20 18 11 11 10 13 25 26 26 19 21 26 21
12 11 14 13 8 8 10 11 7 6 6 5 4 2 3 3 3 3 4 4 4 4 5 5 6 6 5 8 18 21 22 22 13 10 20 23 24 22 16 20 25 20 11
11 11 13 12 8 7 7 8 7 6 6 5 3 2 2 3 3 3 3 3 4 5 5 5 6 7 6 6 7 7 8 14 13 10 13 19 20 17 18 17 14 10 10
9 9 10 11 9 7 7 7 6 6 6 4 3 2 2 2 3 3 3 4 4 6 8 5 5 7 7 11 22 16 11 11 11 13 6 7 9 10 10 10 10 10 11
9 9 9 9 8 8 7 6 5 6 5 3 1 1 2 2 3 3 5 8 10 14 15 15 14 11 16 23 24 24 24 24 23 14 9 10 10 11 12 12 12 12 11
Wind_Direction
210 188 161 136 118 112 115 120 125 129 126 122 116 109 99 92 83 76 74 73 71 68 67 65 54 50 53 41 27 12 6 351 348 342 320 315 328 346 331 351 355 2 3
192 190 161 136 130 124 119 119 123 121 120 115 110 107 110 95 84 77 68 65 66 63 68 65 59 50 51 40 32 26 10 342 1 348 324 332 332 341 334 319 341 358 350
186 180 162 145 133 130 130 127 122 119 118 117 114 112 99 85 72 69 67 61 68 66 66 64 63 54 52 39 25 27 26 341 325 347 37 1 312 309 298 315 344 337 320
177 168 158 150 142 134 126 125 124 122 122 124 129 131 128 121 118 112 96 75 67 67 64 62 59 52 46 34 9 23 1 347 331 330 22 237 248 295 309 306 305 303 306
172 166 160 149 137 130 125 123 120 116 113 111 119 117 112 113 115 107 96 80 64 61 60 59 53 42 31 18 6 357 352 342 323 317 308 294 266 237 265 293 302 303 291
161 150 140 133 126 121 119 120 117 112 111 109 110 119 124 126 122 116 108 90 71 52 46 53 45 32 16 358 349 344 342 333 327 316 307 304 300 304 288 294 303 298 287
156 153 150 144 139 132 126 123 121 116 115 112 110 116 121 122 124 125 119 113 93 65 37 41 31 14 352 344 347 342 332 326 328 312 298 290 283 291 301 306 308 304 296
159 158 154 148 144 138 132 128 125 122 119 116 114 111 111 110 111 113 116 118 121 123 67 40 20 2 352 348 346 332 318 321 314 315 308 298 295 297 299 301 308 309 301
158 154 149 147 144 140 138 134 131 126 122 120 117 111 108 108 110 109 106 108 108 101 56 29 8 353 346 339 334 313 303 302 297 296 297 296 291 293 289 291 295 301 306
151 150 150 147 142 136 130 126 129 128 125 122 121 117 111 111 113 110 109 107 92 62 35 11 356 343 333 324 314 301 293 294 294 288 295 294 294 295 292 289 289 285 290
156 155 151 145 138 133 132 129 129 128 125 119 114 114 113 114 112 111 113 109 84 47 18 353 340 329 317 310 303 295 295 293 291 291 298 293 299 300 300 294 289 286 285
150 149 148 144 144 143 141 137 135 131 128 123 117 115 115 114 112 113 108 94 63 23 354 337 327 318 312 305 299 295 302 293 288 286 289 294 308 305 301 296 291 289 282
147 147 150 152 152 150 146 141 138 134 128 123 118 116 117 118 119 115 99 71 35 357 338 330 322 314 309 304 297 290 288 283 280 281 283 290 300 302 300 296 292 289 291
155 155 156 156 154 150 147 143 137 134 131 125 122 123 128 128 125 114 87 43 7 343 334 328 320 314 310 302 296 294 291 287 282 276 276 283 291 295 297 297 292 298 299
162 164 162 157 153 148 144 142 137 133 132 127 125 130 131 126 118 100 56 14 355 344 335 330 324 321 316 315 320 312 306 301 293 284 279 286 303 308 308 307 308 305 300
170 168 164 160 158 154 149 142 136 133 130 128 129 131 128 124 115 85 32 5 349 340 339 332 323 321 328 329 331 331 319 311 306 303 299 297 304 305 313 312 308 306 306
172 170 168 165 159 153 146 142 137 131 128 127 129 132 131 127 107 54 20 354 338 335 330 323 318 312 316 333 335 332 334 327 315 307 304 308 310 313 299 299 305 306 304
166 162 155 147 138 132 133 129 130 130 128 129 133 136 133 122 84 34 356 330 319 324 315 309 307 309 319 335 334 333 339 316 303 297 295 297 300 305 309 307 308 304 304
145 141 137 133 130 133 134 130 127 127 129 135 140 139 130 115 56 354 328 316 315 313 303 299 303 307 313 328 330 332 313 304 300 293 295 305 305 307 314 317 314 314 308
116 120 120 123 126 131 132 129 131 131 136 141 137 129 120 105 5 324 314 308 305 295 299 300 301 300 299 315 327 328 308 306 307 302 294 310 315 315 321 323 321 317 312
110 115 118 122 128 130 127 126 128 135 136 129 122 113 98 53 335 330 314 307 304 303 304 302 302 299 303 319 327 327 325 315 316 318 316 311 319 324 328 330 321 312 320
106 112 113 113 116 123 123 123 129 130 124 118 112 97 61 12 3 344 317 309 309 310 310 309 308 295 298 315 322 327 328 329 321 316 313 315 324 330 330 328 320 325 330
105 109 114 111 104 111 123 127 133 129 119 110 100 73 35 11 357 334 317 314 317 314 311 308 307 307 299 306 321 326 331 332 328 314 320 326 330 331 328 321 326 330 323
108 113 113 114 109 106 108 120 128 121 113 106 87 55 23 352 340 325 312 314 314 310 306 307 313 311 307 299 301 310 321 327 324 318 322 329 328 327 324 324 325 321 315
110 111 117 119 119 114 110 114 114 111 106 99 76 37 359 329 319 318 313 320 294 304 319 311 305 317 317 320 332 335 329 331 326 332 325 322 325 325 323 322 321 321 322
114 112 113 118 119 116 112 108 107 110 111 101 68 350 316 310 312 316 318 326 328 327 328 329 328 321 322 327 333 333 335 338 338 339 329 325 324 322 322 322 321 321 319